Weather History for Great Bend, KS

Change the Weather History Date:

Friday, April 5, 2013

  Actual Average Record
Temperature  
Mean Temperature 51 °F -  
Max Temperature 69 °F 65 °F 90 °F (1967)
Min Temperature 33 °F 37 °F 21 °F (1968)
Degree Days  
Heating Degree Days 14    
Growing Degree Days 1 (Base 50)    
Moisture  
Dew Point 38 °F    
Average Humidity 62    
Maximum Humidity 87    
Minimum Humidity 31    
Precipitation  
Precipitation 0.00 in - - ()
Sea Level Pressure  
Sea Level Pressure 29.95 in    
Wind  
Wind Speed 15 mph (South)    
Max Wind Speed 32 mph    
Max Gust Speed 41 mph    
Visibility 10 miles    
Events      
Averages and records for this station are not official NWS values.
T = Trace of Precipitation, MM = Missing Value Source: NWS Daily Summary

Daily Weather History Graph

Daily Weather History Graph

Search for Another Location

Airport:

Trip Planner

Search our weather history database for the weather conditions in past years. The results will help you decide how hot, cold, wet, or windy it might be!

Date:

Astronomy

Apr. 05, 2013 Rise Set
Actual Time 7:13 AM CDT 8:02 PM CDT
Civil Twilight 6:47 AM CDT 8:29 PM CDT
Nautical Twilight 6:15 AM CDT 9:01 PM CDT
Astronomical Twilight 5:42 AM CDT 9:34 PM CDT
Moon 4:18 AM CDT (4/5) 3:31 PM CDT (4/5)
Length of Visible Light 13h 42m
Length of Day
12h 48m
Waning Crescent, 23% of the Moon is Illuminated
Apr 5
Waning Crescent
Apr 10
New
Apr 18
First Quarter
Apr 25
Full
May 2
Last Quarter

Hourly Weather History & Observations

Time (CDT) Temp. Windchill Dew Point Humidity Pressure Visibility Wind Dir Wind Speed Gust Speed Precip Events Conditions
12:15 AM 39.2 °F 34.2 °F 33.8 °F 81% 30.13 in 10.0 mi SSW 6.9 mph - N/A   Clear
12:35 AM 39.2 °F 35.0 °F 32.0 °F 75% 30.13 in 10.0 mi SSW 5.8 mph - N/A   Clear
12:55 AM 37.4 °F 32.1 °F 32.0 °F 81% 30.12 in 10.0 mi South 6.9 mph - N/A   Clear
1:15 AM 37.4 °F 31.4 °F 30.2 °F 75% 30.12 in 10.0 mi South 8.1 mph - N/A   Clear
1:35 AM 37.4 °F 32.1 °F 32.0 °F 81% 30.12 in 10.0 mi South 6.9 mph - N/A   Clear
1:55 AM 35.6 °F 30.7 °F 30.2 °F 81% 30.11 in 10.0 mi South 5.8 mph - N/A   Clear
2:15 AM 35.6 °F 28.0 °F 30.2 °F 81% 30.12 in 10.0 mi SSW 10.4 mph - N/A   Clear
2:35 AM 37.4 °F 30.8 °F 33.8 °F 87% 30.12 in 10.0 mi SSW 9.2 mph - N/A   Clear
2:55 AM 37.4 °F 32.1 °F 32.0 °F 81% 30.11 in 10.0 mi SSW 6.9 mph - N/A   Clear
3:15 AM 35.6 °F 28.6 °F 32.0 °F 87% 30.12 in 10.0 mi SSW 9.2 mph - N/A   Clear
3:35 AM 37.4 °F 30.8 °F 33.8 °F 87% 30.12 in 10.0 mi SW 9.2 mph - N/A   Clear
3:55 AM 37.4 °F 30.8 °F 33.8 °F 87% 30.11 in 10.0 mi SW 9.2 mph - N/A   Clear
4:15 AM 37.4 °F 32.1 °F 32.0 °F 81% 30.11 in 10.0 mi SSW 6.9 mph - N/A   Clear
4:35 AM 33.8 °F 27.0 °F 30.2 °F 87% 30.11 in 10.0 mi SSW 8.1 mph - N/A   Clear
4:55 AM 33.8 °F 27.0 °F 28.4 °F 81% 30.11 in 10.0 mi SSW 8.1 mph - N/A   Clear
5:15 AM 35.6 °F 29.2 °F 30.2 °F 81% 30.11 in 10.0 mi SSW 8.1 mph - N/A   Clear
5:35 AM 35.6 °F 28.6 °F 30.2 °F 81% 30.10 in 10.0 mi SSW 9.2 mph - N/A   Clear
5:55 AM 33.8 °F 27.7 °F 30.2 °F 87% 30.10 in 10.0 mi SSW 6.9 mph - N/A   Clear
6:15 AM 33.8 °F 28.6 °F 30.2 °F 87% 30.10 in 10.0 mi SSW 5.8 mph - N/A   Clear
6:35 AM 33.8 °F 27.0 °F 28.4 °F 81% 30.09 in 10.0 mi South 8.1 mph - N/A   Clear
6:55 AM 33.8 °F 27.0 °F 30.2 °F 87% 30.09 in 10.0 mi SSW 8.1 mph - N/A   Clear
7:15 AM 35.6 °F 29.2 °F 30.2 °F 81% 30.09 in 10.0 mi South 8.1 mph - N/A   Clear
7:35 AM 37.4 °F 30.8 °F 33.8 °F 87% 30.09 in 10.0 mi South 9.2 mph - N/A   Clear
7:55 AM 37.4 °F 32.1 °F 33.8 °F 87% 30.08 in 10.0 mi South 6.9 mph - N/A   Clear
8:15 AM 39.2 °F 33.6 °F 35.6 °F 87% 30.08 in 10.0 mi South 8.1 mph - N/A   Clear
8:35 AM 42.8 °F 36.6 °F 37.4 °F 81% 30.07 in 10.0 mi South 11.5 mph - N/A   Clear
8:55 AM 46.4 °F 40.7 °F 39.2 °F 76% 30.09 in 10.0 mi SSW 12.7 mph - N/A   Clear
9:15 AM 46.4 °F 39.8 °F 39.2 °F 76% 30.08 in 10.0 mi SSW 16.1 mph - N/A   Clear
9:35 AM 50.0 °F - 39.2 °F 66% 30.07 in 10.0 mi SSW 19.6 mph 24.2 mph N/A   Clear
9:55 AM 51.8 °F - 41.0 °F 67% 30.06 in 10.0 mi SSW 19.6 mph 26.5 mph N/A   Clear
10:15 AM 53.6 °F - 42.8 °F 67% 30.06 in 10.0 mi South 21.9 mph - N/A   Clear
10:35 AM 55.4 °F - 41.0 °F 58% 30.06 in 10.0 mi South 19.6 mph 28.8 mph N/A   Clear
10:55 AM 55.4 °F - 41.0 °F 58% 30.05 in 10.0 mi South 20.7 mph 25.3 mph N/A   Clear
11:15 AM 59.0 °F - 42.8 °F 55% 30.04 in 10.0 mi South 26.5 mph - N/A   Clear
11:35 AM 60.8 °F - 42.8 °F 52% 30.03 in 10.0 mi South 21.9 mph - N/A   Clear
11:55 AM 62.6 °F - 42.8 °F 48% 30.02 in 10.0 mi South 23.0 mph 28.8 mph N/A   Clear
12:15 PM 64.4 °F - 39.2 °F 40% 30.00 in 10.0 mi South 26.5 mph 32.2 mph N/A   Clear
12:35 PM 66.2 °F - 37.4 °F 35% 29.99 in 10.0 mi South 27.6 mph 31.1 mph N/A   Clear
12:55 PM 68.0 °F - 39.2 °F 35% 29.98 in 10.0 mi South 25.3 mph 33.4 mph N/A   Clear
1:15 PM 68.0 °F - 39.2 °F 35% 29.96 in 10.0 mi South 31.1 mph 36.8 mph N/A   Clear
1:35 PM 66.2 °F - 39.2 °F 37% 29.94 in 10.0 mi South 26.5 mph 35.7 mph N/A   Clear
1:55 PM 66.2 °F - 39.2 °F 37% 29.92 in 10.0 mi South 32.2 mph 35.7 mph N/A   Clear
2:15 PM 69.8 °F - 39.2 °F 33% 29.90 in 10.0 mi South 27.6 mph 36.8 mph N/A   Clear
2:35 PM 69.8 °F - 37.4 °F 31% 29.89 in 10.0 mi South 31.1 mph 36.8 mph N/A   Clear
2:55 PM 69.8 °F - 39.2 °F 33% 29.88 in 10.0 mi South 29.9 mph 38.0 mph N/A   Clear
3:15 PM 68.0 °F - 41.0 °F 37% 29.86 in 10.0 mi SSE 27.6 mph 36.8 mph N/A   Clear
3:35 PM 66.2 °F - 41.0 °F 40% 29.85 in 10.0 mi SSE 28.8 mph 36.8 mph N/A   Clear
3:55 PM 69.8 °F - 42.8 °F 38% 29.83 in 10.0 mi South 31.1 mph 41.4 mph N/A   Clear
4:15 PM 68.0 °F - 41.0 °F 37% 29.83 in 10.0 mi South 28.8 mph 36.8 mph N/A   Clear
4:35 PM 68.0 °F - 42.8 °F 40% 29.82 in 10.0 mi South 31.1 mph 38.0 mph N/A   Clear
4:55 PM 68.0 °F - 42.8 °F 40% 29.81 in 10.0 mi South 27.6 mph 36.8 mph N/A   Clear
5:15 PM 66.2 °F - 39.2 °F 37% 29.81 in 10.0 mi South 28.8 mph 36.8 mph N/A   Clear
5:35 PM 66.2 °F - 41.0 °F 40% 29.79 in 10.0 mi South 29.9 mph 36.8 mph N/A   Clear
5:55 PM 66.2 °F - 42.8 °F 43% 29.79 in 10.0 mi South 29.9 mph 36.8 mph N/A   Clear
6:15 PM 64.4 °F - 42.8 °F 45% 29.78 in 10.0 mi South 29.9 mph 39.1 mph N/A   Clear
6:35 PM 64.4 °F - 42.8 °F 45% 29.77 in 10.0 mi South 31.1 mph 36.8 mph N/A   Clear
6:55 PM 64.4 °F - 42.8 °F 45% 29.77 in 10.0 mi SSE 28.8 mph 36.8 mph N/A   Clear
7:15 PM 62.6 °F - 42.8 °F 48% 29.77 in 10.0 mi SSE 25.3 mph 32.2 mph N/A   Clear
7:35 PM 62.6 °F - 42.8 °F 48% 29.76 in 10.0 mi SSE 27.6 mph 33.4 mph N/A   Clear
7:55 PM 60.8 °F - 42.8 °F 52% 29.75 in 10.0 mi South 28.8 mph 34.5 mph N/A   Clear
8:15 PM 59.0 °F - 42.8 °F 55% 29.75 in 10.0 mi SSE 21.9 mph 31.1 mph N/A   Clear
8:35 PM 57.2 °F - 42.8 °F 59% 29.74 in 10.0 mi SSE 23.0 mph 29.9 mph N/A   Clear
8:55 PM 57.2 °F - 42.8 °F 59% 29.74 in 10.0 mi South 21.9 mph 29.9 mph N/A   Clear
9:15 PM 57.2 °F - 42.8 °F 59% 29.74 in 10.0 mi South 21.9 mph - N/A   Clear
9:35 PM 55.4 °F - 42.8 °F 63% 29.74 in 10.0 mi South 21.9 mph 29.9 mph N/A   Clear
9:55 PM 55.4 °F - 42.8 °F 63% 29.75 in 10.0 mi South 23.0 mph 32.2 mph N/A   Clear
10:15 PM 55.4 °F - 42.8 °F 63% 29.74 in 10.0 mi South 26.5 mph 31.1 mph N/A   Clear
10:35 PM 55.4 °F - 42.8 °F 63% 29.73 in 10.0 mi South 26.5 mph 34.5 mph N/A   Clear
10:55 PM 55.4 °F - 42.8 °F 63% 29.73 in 10.0 mi South 24.2 mph 31.1 mph N/A   Clear
11:15 PM 53.6 °F - 42.8 °F 67% 29.72 in 10.0 mi South 26.5 mph 32.2 mph N/A   Clear
11:35 PM 53.6 °F - 42.8 °F 67% 29.72 in 10.0 mi South 25.3 mph 33.4 mph N/A   Clear
11:55 PM 53.6 °F - 42.8 °F 67% 29.71 in 10.0 mi South 23.0 mph 26.5 mph N/A   Clear